This demonstration page uses our WeatherBlox Daily Observations layout. Learn more.

Left ArrowRight Arrow

41.12389, -100.76542

Hourly Observations for March 18, 2020

Temp ( °F °C ) Dew Point ( °F °C ) Humidity (%) Winds ( mph kmh ) Pressure ( in mb ) Visibility ( mi km ) Precip ( " mm )
12:53 am 00:53 Cloudy 39 3.9 36 2.2 89 89 S 10 17 29.93 1014 10 16 0.00 0.00
1:53 am 01:53 Cloudy 39 3.9 36 2.2 89 89 S 3 6 29.92 1013 10 16 0.00 0.00
2:53 am 02:53 Cloudy 40 4.4 37 2.8 89 89 Calm 29.91 1013 10 16 0.00 0.00
3:09 am 03:09 Cloudy 39 3.9 37 2.8 93 93 Calm 29.94 1014 10 16 0.00 0.00
3:44 am 03:44 Cloudy 39 3.9 37 2.8 93 93 S 5 7 29.93 1014 10 16 0.00 0.00
3:53 am 03:53 Cloudy 40 4.4 37 2.8 89 89 SSW 3 6 29.90 1013 10 16 0.00 0.00
4:53 am 04:53 Cloudy 39 3.9 37 2.8 93 93 E 3 6 29.89 1012 10 16 0.00 0.00
5:21 am 05:21 Cloudy 40 4.4 37 2.8 89 89 ESE 3 6 29.90 1013 10 16 0.00 0.00
5:28 am 05:28 Cloudy 40 4.4 37 2.8 89 89 E 3 6 29.90 1013 9 14 0.00 0.00
5:53 am 05:53 Cloudy 39 3.9 37 2.8 93 93 ESE 3 6 29.88 1012 10 16 0.00 0.00
6:01 am 06:01 Cloudy 40 4.4 37 2.8 89 89 ESE 3 6 29.90 1013 10 16 0.00 0.00
6:53 am 06:53 Cloudy 40 4.4 37 2.8 89 89 Calm 29.88 1012 9 14 0.00 0.00
7:15 am 07:15 Cloudy with Mist and Fog 40 4.4 37 2.8 89 89 Calm 29.91 1013 6 10 0.00 0.00
7:30 am 07:30 Cloudy 40 4.4 37 2.8 89 89 NNE 3 6 29.91 1013 8 13 0.00 0.00
7:41 am 07:41 Cloudy 40 4.4 37 2.8 89 89 Calm 29.92 1013 8 13 0.00 0.00
7:53 am 07:53 Cloudy with Mist and Fog 40 4.4 37 2.8 89 89 ENE 3 6 29.90 1013 5 8 0.00 0.00
8:42 am 08:42 Cloudy with Mist and Fog 40 4.4 38 3.3 93 93 Calm 29.94 1014 2 3 0.00 0.00
8:49 am 08:49 Cloudy with Mist and Fog 39 4 37 3 93 93 Calm 29.95 1014 1 2 0.00 0.00
8:50 am 08:50 Cloudy with Mist and Fog 40 4.4 38 3.3 93 93 Calm 29.92 1013 1 2 0.00 0.00
9:02 am 09:02 Cloudy with Mist and Fog 40 4.4 38 3.3 93 93 NE 3 6 29.94 1014 2 2 0.00 0.00
9:27 am 09:27 Cloudy 41 5 38 3.3 89 89 Calm 29.95 1014 8 13 0.00 0.00
9:53 am 09:53 Cloudy 41 5 38 3.3 89 89 Calm 29.94 1014 10 16 0.00 0.00
11:49 am 11:49 Cloudy 45 7 39 4 81 81 Calm 29.94 1014 10 16 0.00 0.00
11:53 am 11:53 Cloudy 45 7.2 39 3.9 80 80 Calm 29.93 1014 10 16 0.00 0.00
12:48 pm 12:48 Cloudy 48 9 39 4 71 71 E 6 9 29.90 1013 10 16 0.00 0.00
12:53 pm 12:53 Cloudy 48 8.9 39 3.9 71 71 SE 3 6 29.92 1013 10 16 0.00 0.00
1:53 pm 13:53 Cloudy 51 10.6 40 4.4 66 66 NNE 3 6 29.90 1012 10 16 0.00 0.00
2:53 pm 14:53 Cloudy 52 11.1 40 4.4 64 64 VRB 5 7 29.87 1011 10 16 0.00 0.00
3:53 pm 15:53 Cloudy 52 11.1 41 5 66 66 S 9 15 29.86 1011 10 16 0.00 0.00
4:53 pm 16:53 Cloudy 51 10.6 42 5.6 71 71 SE 7 11 29.84 1011 10 16 0.00 0.00
5:50 pm 17:50 Cloudy with Haze 50 10 45 7 82 82 SE 7 11 29.84 1011 5 8 0.00 0.00
5:53 pm 17:53 Cloudy with Mist and Fog 49 9.4 45 7.2 86 86 SE 6 9 29.86 1011 4 6 0.00 0.00
6:15 pm 18:15 Cloudy 50 10 45 7.2 83 83 SE 13 20 29.83 1010 9 14 0.00 0.00
6:31 pm 18:31 Cloudy 49 9.4 46 7.8 90 90 SSE 10 17 29.84 1010 7 11 0.00 0.00
6:53 pm 18:53 Cloudy 49 9.4 45 7.2 86 86 SE 13 20 29.85 1011 10 16 0.00 0.00
7:01 pm 19:01 Cloudy with Mist and Fog 49 9.4 45 7.2 86 86 SE 12 19 29.85 1011 6 10 0.00 0.00
7:51 pm 19:51 Cloudy with Light Rain 48 9 45 7 87 87 SE 10 17 29.86 1011 6 10 0.01 0.25
7:53 pm 19:53 Cloudy 48 8.9 45 7.2 89 89 SE 9 15 29.87 1012 7 11 0.01 0.25
8:09 pm 20:09 Cloudy 47 8.3 45 7.2 93 93 SE 10 17 29.86 1011 8 13 0.00 0.00
8:42 pm 20:42 Cloudy 47 8.3 45 7.2 93 93 ESE 13 20 29.85 1011 7 11 0.00 0.00
8:53 pm 20:53 Cloudy with Light Rain 47 8.3 44 6.7 90 90 SE 12 19 29.86 1011 6 10 0.00 0.00
9:42 pm 21:42 Cloudy 47 8.3 44 6.7 90 90 ESE 12 19 29.85 1011 7 11 0.00 0.00
9:53 pm 21:53 Cloudy 47 8.3 44 6.7 90 90 ESE 13 20 29.85 1011 8 13 0.00 0.00
10:36 pm 22:36 Cloudy with Mist and Fog 46 7.8 44 6.7 93 93 ESE 9 15 29.83 1010 3 4 0.00 0.00
10:53 pm 22:53 Cloudy with Mist and Fog 46 7.8 44 6.7 93 93 ESE 10 17 29.83 1010 2 3 0.00 0.00
11:07 pm 23:07 Cloudy with Mist and Fog 46 7.8 44 6.7 93 93 E 10 17 29.83 1010 2 3 0.00 0.00
11:53 pm 23:53 Cloudy with Mist and Fog 47 8.3 44 6.7 90 90 ESE 10 17 29.83 1010 2 3 0.00 0.00

Powered by AerisWeather